Other Public Products
Issued by NWS Grand Forks, ND

Home | Current Version | Previous Version | Graphics & Text | Print | Product List | Glossary On
Versions: 1 2 3 4 5 6 7 8 9 10 11 12 13 14 15 16 17 18 19 20 21 22 23 24 25 26 27 28 29 30 31 32 33 34 35 36 37 38 39 40 41 42 43 44 45 46 47 48 49 50
000
FPUS83 KFGF 011810
OPUFGF
PRAIRIE TO PINES WEATHER ROUNDUP
NATIONAL WEATHER SERVICE EASTERN NORTH DAKOTA/GRAND FORKS ND
100 PM CDT MON SEP 01 2014

 **SATELLITE DATA USED TO AUGMENT SKY COVER AT AUTOMATED STATIONS**
 *****  WEATHER ACROSS EASTERN NORTH DAKOTA  *****

CITY           SKY/WX    TMP DP  RH WIND       PRES   REMARKS
GRAND FORKS    MOSUNNY   74  55  51 W6        29.70F
6HR MIN TEMP:  51; 6HR MAX TEMP:  74;

GRAND FORKS AF MOSUNNY   75  56  51 W7        29.71F
GRAND CITY NWS   N/A     72 N/A N/A W3          N/A
BUXTON         NOT AVBL
DEVILS LAKE    MOSUNNY   66  54  63 NW14      29.73F
6HR MIN TEMP:  54; 6HR MAX TEMP:  66;

FARGO          MOSUNNY   73  54  51 W9        29.74S
6HR MIN TEMP:  52; 6HR MAX TEMP:  75;

WAHPETON ARPT  PTCLDY    70  55  60 W6        29.77S
$$

 *****  WEATHER ACROSS CENTRAL AND WESTERN NORTH DAKOTA  *****

CITY           SKY/WX    TMP DP  RH WIND       PRES   REMARKS
JAMESTOWN      SUNNY     70  57  63 W10       29.77S
6HR MIN TEMP:  54; 6HR MAX TEMP:  70;

BISMARCK       SUNNY     70  52  52 NW14G22   29.82S
6HR MIN TEMP:  50; 6HR MAX TEMP:  71;

MINOT          SUNNY     69  48  47 W12       29.79S
6HR MIN TEMP:  51; 6HR MAX TEMP:  69;

MINOT AFB      SUNNY     69  49  49 NW14      29.78S
6HR MIN TEMP:  49; 6HR MAX TEMP:  69;

GARRISON         N/A     69  50  50 NW14      29.82S
6HR MIN TEMP:  48; 6HR MAX TEMP:  69;

WILLISTON      MOSUNNY   70  44  39 NW12      29.84F
6HR MIN TEMP:  48; 6HR MAX TEMP:  71;

DICKINSON      MOSUNNY   67  48  50 NW8G18    29.86S
6HR MIN TEMP:  49; 6HR MAX TEMP:  68;

HETTINGER      MOSUNNY   68  47  46 NW13      29.89S
6HR MIN TEMP:  44; 6HR MAX TEMP:  69;

$$

 *****  OTHER OBSERVATIONS NORTHEAST NORTH DAKOTA  *****

CITY           SKY/WX    TMP DP  RH WIND       PRES   REMARKS
WALHALLA       FAIR      73  52  46 W10G17    29.69S
LANGDON        MOCLDY    68  50  52 NW9       29.72S
CAVALIER       FAIR      73  54  49 W8        29.69S
GRAFTON        FAIR      73  54  49 W6        29.69F
CANDO          FAIR      64  50  59 NW17      29.76S
FORT TOTTEN    NOT AVBL
ROLLA          MOCLDY    63  52  67 NW8       29.77S
RUGBY          FAIR      64  54  68 NW9       29.77S
 ***** THE ABOVE OBSERVATIONS ARE NON NWS ARE NOT QUALITY
        CONTROLLED AND MAY MIS-REPORT RAIN FOR SNOW...
$$

 *****  OTHER OBSERVATIONS SOUTHEAST NORTH DAKOTA *****

CITY           SKY/WX    TMP DP  RH WIND       PRES   REMARKS
COOPERSTOWN    NOT AVBL
VALLEY CITY    FAIR      72  55  56 W16       29.76S
OAKES            N/A     73  57  56 W10G17    29.77S
GWINNER        CLEAR     73  57  56 W7        29.78S
SHEYENNE NWR     N/A     74  54  49 W7        29.95S
BUFFALO        NOT AVBL
WYNDMERE       NOT AVBL
 ***** THE ABOVE OBSERVATIONS ARE NON NWS ARE NOT QUALITY
       CONTROLLED AND MAY MIS-REPORT RAIN FOR SNOW...
$$

  *****  WEATHER ACROSS NORTHERN MINNESOTA  *****

CITY           SKY/WX    TMP DP  RH WIND       PRES   REMARKS
FLAG ISLAND    SUNNY     64  54  68 NW9       29.65S
WARROAD        MOSUNNY   70  55  60 W10       29.68S
ROSEAU         SUNNY     70  55  60 NW12      29.68S
HALLOCK        SUNNY     72  54  53 SW8       29.69S
THF RVR FALLS  SUNNY     68  54  60 NW7       29.72S
6HR MIN TEMP:  55; 6HR MAX TEMP:  68;

HALSTAD          N/A     73  52  46 W8          N/A
FOSSTON        SUNNY     70  54  56 NW8       29.74S
BAUDETTE       MOSUNNY   67  53  61 NW12      29.67R
6HR MIN TEMP:  58; 6HR MAX TEMP:  67;

WASKISH        MOSUNNY   68  55  64 W5        29.69S
CROOKSTON      SUNNY     72  54  53 W5        29.72S
$$
  *****  WEATHER ACROSS CENTRAL AND WEST MINNESOTA  *****

CITY           SKY/WX    TMP DP  RH WIND       PRES   REMARKS
BEMIDJI        SUNNY     67  52  58 NW13G20   29.72F
PARK RAPIDS    SUNNY     70  48  45 NW15      29.73S
6HR MIN TEMP:  56; 6HR MAX TEMP:  70;

WADENA         SUNNY     70  54  56 NW13G18   29.75S
DETROIT LAKES  SUNNY     68  55  64 NW7       29.77S
MOORHEAD       MOSUNNY   72  57  60 CALM      29.75S
FERGUS FALLS   MOSUNNY   70  55  60 W7        29.76F
ELBOW LAKE     FAIR      70  56  61 NW7       29.77S
6HR MIN TEMP:  55; 6HR MAX TEMP:  71;

MORRIS MN      SUNNY     73  59  60 W9        29.78R
STAPLES        SUNNY     72  52  49 NW12G17   29.73F
WHEATON        SUNNY     70  57  64 W7        29.79S
$$
  *****  WEATHER ELSEWHERE ACROSS MINNESOTA  *****

CITY           SKY/WX    TMP DP  RH WIND       PRES   REMARKS
DULUTH         CLOUDY    68  56  65 W12G22    29.66S
6HR MIN TEMP:  61; 6HR MAX TEMP:  68;

INTRNTL FALLS  PTSUNNY   65  59  81 W13       29.64S
6HR MIN TEMP:  58; 6HR MAX TEMP:  65; 6HR PCP:  0.03;

ELY            PTSUNNY   63  55  77 NW12      29.63S
CLOQUET        PTSUNNY   66  55  68 W10       29.68S
BRAINERD       SUNNY     69  51  52 NW12      29.72S
6HR MIN TEMP:  60; 6HR MAX TEMP:  69;

HIBBING        PTSUNNY   68  56  65 W8        29.67R
6HR MIN TEMP:  60; 6HR MAX TEMP:  68;

ALEXANDRIA     MOSUNNY   72  57  59 NW14      29.78S
6HR MIN TEMP:  61; 6HR MAX TEMP:  72;

SAINT CLOUD    SUNNY     74  55  51 NW10      29.74R
6HR MIN TEMP:  65; 6HR MAX TEMP:  75;

MINNEAPOLIS    MOSUNNY   74  58  57 W9G18     29.73S
6HR MIN TEMP:  66; 6HR MAX TEMP:  75;

$$

  *****  WEATHER ACROSS SOUTH DAKOTA  *****

CITY           SKY/WX    TMP DP  RH WIND       PRES   REMARKS
SIOUX FALLS    PTSUNNY   74  61  63 NW15      29.84F
6HR MIN TEMP:  60; 6HR MAX TEMP:  74;

BROOKINGS      NOT AVBL
WATERTOWN      MOSUNNY   72  58  61 W12       29.82R
6HR MIN TEMP:  58; 6HR MAX TEMP:  72;

HURON          SUNNY     74  54  49 W8        29.84S
6HR MIN TEMP:  54; 6HR MAX TEMP:  74;

SISSETON         N/A     74  55  51 NW6       29.77S
ABERDEEN       SUNNY     73  56  54 W7        29.80R
6HR MIN TEMP:  54; 6HR MAX TEMP:  73;

MITCHELL       SUNNY     73  58  59 NW10      29.86S
PIERRE         MOSUNNY   73  56  54 SW8       29.84S
6HR MIN TEMP:  52; 6HR MAX TEMP:  74;

MOBRIDGE       SUNNY     72  55  55 NW7       29.81R
RAPID CITY     PTSUNNY   72  47  40 N10       29.94S
6HR MIN TEMP:  49; 6HR MAX TEMP:  72;

$$

  *****  SOME WEATHER IN NEARBY STATES *****

CITY           SKY/WX    TMP DP  RH WIND       PRES   REMARKS
GLASGOW MT     SUNNY     66  48  52 W7        29.88S
6HR MIN TEMP:  48; 6HR MAX TEMP:  66;

GREAT FALLS MT MOSUNNY   66  37  34 SW9G24    29.96F
6HR MIN TEMP:  48; 6HR MAX TEMP:  66;

CHEYENNE WY    MOSUNNY   67  30  25 W10G20    30.09F
6HR MIN TEMP:  45; 6HR MAX TEMP:  68;

SCOTTSBLUFF NE SUNNY     73  50  44 SE9       29.98F
6HR MIN TEMP:  48; 6HR MAX TEMP:  73;

OMAHA NE       MOSUNNY   76  62  62 NW7       29.88S
6HR MIN TEMP:  67; 6HR MAX TEMP:  76;

DES MOINES IA  MOSUNNY   80  65  59 W18       29.79S
6HR MIN TEMP:  69; 6HR MAX TEMP:  81;

DAVENPORT IA   MOSUNNY   79  65  62 SW20G25   29.79S
6HR MIN TEMP:  65; 6HR MAX TEMP:  79; 6HR PCP: TRACE;

CHICAGO IL     PTSUNNY   79  65  62 SW14G22   29.77S
6HR MIN TEMP:  74; 6HR MAX TEMP:  80; 6HR PCP:  0.09;

EAU CLAIRE WI  MOSUNNY   75  62  64 W9        29.68S
6HR MIN TEMP:  64; 6HR MAX TEMP:  76; 6HR PCP:  0.83;

LA CROSSE WI   PTSUNNY   78  65  63 W8        29.69F
6HR MIN TEMP:  66; 6HR MAX TEMP:  78; 6HR PCP:  0.31;

$$

  *****  SOME NATIONAL WEATHER *****

CITY           SKY/WX    TMP DP  RH WIND       PRES   REMARKS



USA.gov is the U.S. government's official web portal to all federal, state and local government web resources and services.